Total_Precipitation_Accumulation
1.74 1.57 1.35 1.27 1.21 1.08 1.04 1.03 0.98 0.95 0.90 0.84 0.80 0.71 0.65 0.60 0.56 0.49 0.45 0.48 0.63 0.97 1.27 1.46 1.53 1.50 1.52 1.47 1.28 1.19 1.13 1.09 1.05 1.00 0.97 0.94 0.93 0.92 0.94 0.93 0.92 0.94 0.96
1.95 1.85 1.67 1.52 1.41 1.28 1.17 1.12 1.02 0.99 0.99 0.93 0.84 0.76 0.73 0.68 0.64 0.59 0.47 0.42 0.48 0.66 1.06 1.45 1.74 1.85 1.90 1.91 1.71 1.55 1.43 1.32 1.25 1.15 1.11 1.10 1.04 1.02 1.02 1.02 1.02 1.04 1.06
2.12 2.10 1.93 1.77 1.55 1.49 1.47 1.40 1.26 1.15 1.07 1.02 0.95 0.87 0.83 0.76 0.70 0.70 0.62 0.52 0.47 0.49 0.72 1.15 1.57 1.79 1.94 2.11 2.11 1.96 1.74 1.53 1.41 1.31 1.23 1.19 1.15 1.12 1.14 1.17 1.18 1.17 1.17
2.23 2.29 2.13 1.99 1.87 1.70 1.63 1.57 1.46 1.34 1.23 1.17 1.09 1.03 0.99 0.92 0.78 0.71 0.68 0.64 0.62 0.56 0.57 0.83 1.17 1.42 1.64 1.89 2.14 2.25 2.12 1.79 1.53 1.36 1.29 1.27 1.25 1.24 1.25 1.28 1.32 1.31 1.28
2.55 2.43 2.25 2.10 2.14 2.05 1.84 1.71 1.61 1.44 1.33 1.24 1.18 1.15 1.09 1.03 0.95 0.86 0.78 0.68 0.62 0.62 0.63 0.72 0.87 1.02 1.23 1.47 1.82 2.12 2.21 2.11 1.82 1.56 1.41 1.35 1.31 1.34 1.42 1.48 1.45 1.41 1.39
2.77 2.75 2.54 2.44 2.38 2.32 2.13 1.92 1.73 1.58 1.41 1.40 1.36 1.28 1.24 1.21 1.09 1.00 0.94 0.87 0.76 0.66 0.65 0.69 0.77 0.81 0.94 1.12 1.39 1.72 1.94 2.09 2.03 1.86 1.69 1.63 1.58 1.56 1.62 1.66 1.66 1.65 1.66
2.83 2.90 2.76 2.70 2.62 2.42 2.27 2.14 1.97 1.78 1.59 1.57 1.60 1.44 1.30 1.27 1.24 1.11 1.04 0.98 0.91 0.85 0.80 0.78 0.80 0.80 0.81 0.93 1.07 1.31 1.54 1.72 1.93 2.00 1.88 1.79 1.78 1.78 1.79 1.84 1.85 1.85 1.91
3.02 2.99 2.85 2.81 2.82 2.64 2.48 2.33 2.23 2.03 1.80 1.75 1.76 1.76 1.57 1.42 1.26 1.12 1.07 1.00 0.95 0.95 0.96 0.95 0.94 0.94 0.89 0.87 0.88 1.02 1.20 1.48 1.81 2.15 2.19 2.07 2.07 2.06 2.09 2.13 2.19 2.22 2.26
3.19 3.03 2.97 2.95 2.96 2.89 2.77 2.65 2.58 2.39 2.16 2.03 1.90 2.01 1.85 1.51 1.24 1.15 1.08 1.02 0.98 0.98 1.00 1.04 1.06 1.09 1.04 0.96 0.91 0.94 1.07 1.29 1.70 2.15 2.40 2.44 2.42 2.41 2.52 2.59 2.66 2.70 2.65
3.23 3.15 3.07 3.05 3.04 3.01 2.92 2.89 2.84 2.72 2.56 2.41 2.23 2.00 1.79 1.55 1.43 1.27 1.12 1.06 1.07 1.06 1.07 1.10 1.13 1.20 1.19 1.09 1.08 1.10 1.15 1.27 1.57 2.05 2.52 2.78 2.88 2.98 3.09 3.19 3.23 3.23 3.11
3.21 3.10 3.00 2.97 2.97 3.03 3.04 2.98 2.90 2.89 2.73 2.51 2.33 2.18 2.02 1.70 1.45 1.37 1.19 1.04 1.04 1.01 1.02 1.07 1.09 1.12 1.20 1.15 1.16 1.28 1.38 1.41 1.61 1.99 2.56 3.06 3.33 3.54 3.71 3.81 3.83 3.75 3.63
3.09 3.01 2.92 2.81 2.76 2.85 2.97 3.09 3.00 2.93 2.87 2.65 2.41 2.19 2.08 1.93 1.69 1.54 1.39 1.18 1.14 1.04 0.99 1.00 1.07 1.15 1.27 1.25 1.28 1.48 1.50 1.54 1.72 2.05 2.55 3.01 3.34 3.61 3.78 4.01 4.10 4.03 3.95
2.89 2.69 2.70 2.71 2.62 2.59 2.74 2.95 3.02 2.93 2.87 2.77 2.61 2.39 2.19 1.94 1.76 1.75 1.75 1.60 1.43 1.23 1.15 1.12 1.10 1.16 1.32 1.42 1.42 1.58 1.52 1.58 1.67 1.88 2.27 2.68 2.89 3.08 3.29 3.63 3.96 4.05 3.97
2.90 2.68 2.58 2.64 2.70 2.64 2.64 2.76 2.80 2.74 2.74 2.71 2.64 2.54 2.41 2.17 1.98 1.91 1.94 2.07 2.04 1.73 1.51 1.36 1.30 1.35 1.42 1.52 1.60 1.68 1.50 1.67 1.70 1.75 1.94 2.20 2.31 2.37 2.48 2.70 3.04 3.34 3.54
2.74 2.67 2.60 2.56 2.57 2.65 2.68 2.73 2.71 2.56 2.51 2.52 2.46 2.44 2.39 2.23 2.12 2.05 2.07 2.22 2.48 2.35 1.91 1.54 1.48 1.50 1.53 1.59 1.68 1.48 1.30 1.53 1.60 1.60 1.65 1.75 1.81 1.80 1.85 2.03 2.21 2.37 2.57
2.36 2.46 2.50 2.43 2.40 2.40 2.45 2.56 2.60 2.50 2.40 2.33 2.28 2.28 2.24 2.13 2.10 2.10 2.09 2.11 2.26 2.42 2.18 1.61 1.37 1.34 1.42 1.47 1.62 1.36 1.21 1.44 1.37 1.37 1.45 1.52 1.57 1.54 1.56 1.70 1.83 1.91 1.95
2.12 2.16 2.22 2.23 2.21 2.22 2.20 2.25 2.29 2.29 2.27 2.16 2.11 2.12 2.07 1.98 1.98 1.97 1.98 2.01 2.02 2.08 2.06 1.59 1.26 1.19 1.27 1.30 1.36 1.25 1.12 1.10 1.07 1.22 1.23 1.30 1.36 1.38 1.41 1.48 1.57 1.66 1.72
1.86 1.94 1.97 2.00 2.01 2.01 1.98 1.98 1.96 1.95 1.99 1.96 1.89 1.90 1.88 1.86 1.85 1.80 1.84 1.84 1.79 1.75 1.75 1.58 1.28 1.15 1.11 1.07 1.07 1.07 1.00 0.95 0.90 1.05 1.07 1.10 1.17 1.24 1.27 1.29 1.38 1.46 1.52
1.60 1.71 1.80 1.81 1.82 1.82 1.77 1.73 1.71 1.69 1.62 1.63 1.65 1.68 1.66 1.74 1.81 1.77 1.73 1.66 1.57 1.54 1.56 1.53 1.29 1.09 1.03 0.99 1.03 1.02 0.93 0.87 0.83 0.89 0.94 0.95 1.00 1.09 1.18 1.23 1.25 1.28 1.29
1.53 1.53 1.60 1.66 1.68 1.71 1.72 1.65 1.62 1.65 1.61 1.53 1.53 1.60 1.63 1.64 1.66 1.65 1.64 1.58 1.54 1.57 1.54 1.57 1.47 1.27 1.16 1.09 1.13 1.12 1.07 0.94 0.86 0.82 0.92 0.96 1.02 1.07 1.09 1.11 1.06 1.03 1.05
1.59 1.53 1.54 1.58 1.63 1.69 1.73 1.76 1.76 1.78 1.82 1.81 1.72 1.66 1.65 1.71 1.72 1.70 1.66 1.59 1.58 1.67 1.69 1.70 1.60 1.42 1.25 1.21 1.22 1.14 1.15 1.11 1.03 0.94 0.97 0.92 0.91 0.91 0.93 1.00 1.05 1.05 1.03
1.73 1.64 1.64 1.65 1.67 1.72 1.99 2.02 1.93 1.89 1.92 1.87 1.78 1.64 1.57 1.63 1.59 1.66 1.70 1.67 1.71 1.81 1.89 1.85 1.66 1.39 1.10 1.03 1.09 1.21 1.32 1.47 1.41 1.03 0.98 0.95 0.89 0.93 0.88 0.89 1.03 1.09 1.12
1.82 1.80 1.79 1.83 1.85 1.88 2.02 1.93 1.95 1.84 1.81 1.70 1.60 1.54 1.47 1.42 1.49 1.39 1.51 1.65 1.71 1.80 1.80 1.70 1.55 1.22 1.02 0.94 1.17 1.46 1.49 1.47 1.26 0.99 1.08 1.14 0.98 0.95 0.84 0.89 1.09 1.07 1.10
1.98 1.97 1.95 1.97 1.94 1.93 1.94 1.81 1.79 1.66 1.59 1.51 1.41 1.37 1.35 1.31 1.31 1.36 1.45 1.55 1.43 1.36 1.33 1.24 1.19 1.10 1.04 1.06 1.29 1.58 1.66 1.63 1.37 1.19 1.23 1.37 1.12 1.03 0.88 0.86 1.02 1.03 1.06
2.11 2.06 1.97 1.86 1.76 1.70 1.72 1.64 1.63 1.50 1.44 1.38 1.28 1.24 1.27 1.22 1.36 1.59 1.62 1.56 1.36 1.22 1.27 1.32 1.32 1.30 1.37 1.43 1.49 1.74 1.96 2.12 1.87 1.42 1.25 1.34 1.16 1.10 1.06 0.96 0.95 1.03 1.03
1.91 1.86 1.79 1.68 1.53 1.41 1.48 1.50 1.52 1.39 1.36 1.26 1.20 1.17 1.27 1.26 1.46 1.66 1.55 1.50 1.41 1.22 1.19 1.20 1.20 1.20 1.16 1.22 1.44 1.55 1.91 2.38 2.16 1.71 1.22 1.34 1.31 1.39 1.62 1.17 0.95 0.97 1.03